Weather History for KIIY - January, 2014

Change the Weather History Date:

Sunday, January 19, 2014

  Actual Average (KDBN) Record (KDBN)
Temperature  
Mean Temperature 47 °F -  
Max Temperature 59 °F 59 °F 79 °F (1937)
Min Temperature 35 °F 35 °F 4 °F (1977)
Degree Days  
Heating Degree Days 18    
Moisture  
Dew Point 25 °F    
Average Humidity 44    
Maximum Humidity 61    
Minimum Humidity 31    
Precipitation  
Precipitation 0.00 in - - ()
Sea Level Pressure  
Sea Level Pressure 30.01 in    
Wind  
Wind Speed 7 mph (WSW)    
Max Wind Speed 16 mph    
Max Gust Speed 26 mph    
Visibility 10 miles    
Events      
Averages and records for this station are not official NWS values.
T = Trace of Precipitation, MM = Missing Value Source: NWS Daily Summary

Daily Weather History Graph

Daily Weather History Graph

Search for Another Location

Airport or City:

Trip Planner

Search our weather history database for the weather conditions in past years. The results will help you decide how hot, cold, wet, or windy it might be!

Date:

Astronomy

Jan. 19, 2014 Rise Set
Actual Time 7:34 AM EST 5:49 PM EST
Civil Twilight 7:07 AM EST 6:16 PM EST
Nautical Twilight 6:37 AM EST 6:46 PM EST
Astronomical Twilight 6:07 AM EST 7:16 PM EST
Moon 9:14 PM EST (1/19) 9:15 AM EST (1/19)
Length of Visible Light 11h 08m
Length of Day
10h 14m
Waning Gibbous, 89% of the Moon is Illuminated
Jan 19
Waning Gibbous
Jan 24
Last Quarter
Jan 30
New
Feb 6
First Quarter
Feb 14
Full

Hourly Weather History & Observations

Time (EST) Temp. Windchill Dew Point Humidity Pressure Visibility Wind Dir Wind Speed Gust Speed Precip Events Conditions
12:15 AM 35.6 °F 32.8 °F 15.8 °F 44% 30.02 in 10.0 mi SSW 3.5 mph - N/A   Clear
12:35 AM 35.6 °F 32.8 °F 17.6 °F 48% 30.01 in 10.0 mi SSW 3.5 mph - N/A   Clear
12:55 AM 35.6 °F 31.7 °F 15.8 °F 44% 30.01 in 10.0 mi South 4.6 mph - N/A   Clear
1:15 AM 35.6 °F 32.8 °F 15.8 °F 44% 30.00 in 10.0 mi SSW 3.5 mph - N/A   Clear
1:35 AM 35.6 °F 32.8 °F 17.6 °F 48% 29.99 in 10.0 mi South 3.5 mph - N/A   Clear
1:55 AM 35.6 °F 31.7 °F 17.6 °F 48% 29.97 in 10.0 mi South 4.6 mph - N/A   Clear
2:15 AM 39.2 °F 35.0 °F 19.4 °F 45% 29.97 in 10.0 mi SSW 5.8 mph - N/A   Clear
2:35 AM 39.2 °F 35.0 °F 17.6 °F 42% 29.97 in 10.0 mi SSW 5.8 mph - N/A   Clear
2:55 AM 39.2 °F 34.2 °F 17.6 °F 42% 29.97 in 10.0 mi SW 6.9 mph - N/A   Clear
3:15 AM 39.2 °F 35.0 °F 17.6 °F 42% 29.97 in 10.0 mi SW 5.8 mph - N/A   Clear
3:35 AM 41.0 °F 37.1 °F 19.4 °F 42% 29.98 in 10.0 mi SW 5.8 mph - N/A   Clear
3:55 AM 42.8 °F 40.1 °F 19.4 °F 39% 29.98 in 10.0 mi SW 4.6 mph - N/A   Clear
4:15 AM 42.8 °F 40.1 °F 19.4 °F 39% 29.97 in 10.0 mi SW 4.6 mph - N/A   Clear
4:35 AM 42.8 °F 40.1 °F 19.4 °F 39% 29.97 in 10.0 mi SW 4.6 mph - N/A   Clear
4:55 AM 42.8 °F 39.3 °F 21.2 °F 42% 29.96 in 10.0 mi SSW 5.8 mph - N/A   Clear
5:15 AM 42.8 °F 40.1 °F 21.2 °F 42% 29.97 in 10.0 mi SW 4.6 mph - N/A   Clear
5:35 AM 42.8 °F 40.1 °F 21.2 °F 42% 29.97 in 10.0 mi SW 4.6 mph - N/A   Clear
5:55 AM 42.8 °F 39.3 °F 21.2 °F 42% 29.97 in 10.0 mi SW 5.8 mph - N/A   Clear
6:15 AM 42.8 °F 39.3 °F 23.0 °F 46% 29.97 in 10.0 mi SW 5.8 mph - N/A   Clear
6:35 AM 42.8 °F 40.1 °F 23.0 °F 46% 29.98 in 10.0 mi SW 4.6 mph - N/A   Clear
6:55 AM 42.8 °F 39.3 °F 24.8 °F 49% 29.98 in 10.0 mi SW 5.8 mph - N/A   Clear
7:15 AM 42.8 °F 40.1 °F 26.6 °F 53% 29.99 in 10.0 mi SW 4.6 mph - N/A   Clear
7:35 AM 41.0 °F 37.1 °F 26.6 °F 57% 29.99 in 10.0 mi SW 5.8 mph - N/A   Clear
7:55 AM 39.2 °F 35.0 °F 26.6 °F 61% 30.00 in 10.0 mi SW 5.8 mph - N/A   Clear
8:15 AM 41.0 °F 38.0 °F 26.6 °F 57% 30.00 in 10.0 mi SW 4.6 mph - N/A   Clear
8:35 AM 42.8 °F 39.3 °F 28.4 °F 57% 30.01 in 10.0 mi WSW 5.8 mph - N/A   Clear
8:55 AM 44.6 °F 40.2 °F 28.4 °F 53% 30.02 in 10.0 mi WSW 8.1 mph - N/A   Clear
9:15 AM 44.6 °F 40.7 °F 28.4 °F 53% 30.02 in 10.0 mi WSW 6.9 mph - N/A   Clear
9:35 AM 46.4 °F 41.5 °F 30.2 °F 53% 30.02 in 10.0 mi West 10.4 mph 16.1 mph N/A   Clear
9:55 AM 46.4 °F 41.9 °F 28.4 °F 50% 30.03 in 10.0 mi West 9.2 mph 21.9 mph N/A   Clear
10:15 AM 48.2 °F - 28.4 °F 46% 30.04 in 10.0 mi West 15.0 mph 19.6 mph N/A   Clear
10:35 AM 50.0 °F - 28.4 °F 43% 30.04 in 10.0 mi West 12.7 mph 18.4 mph N/A   Clear
10:55 AM 51.8 °F - 30.2 °F 44% 30.05 in 10.0 mi West 11.5 mph 16.1 mph N/A   Clear
11:15 AM 51.8 °F - 28.4 °F 41% 30.05 in 10.0 mi WNW 11.5 mph 16.1 mph N/A   Clear
11:35 AM 53.6 °F - 30.2 °F 41% 30.05 in 10.0 mi West 10.4 mph 16.1 mph N/A   Clear
11:55 AM 53.6 °F - 30.2 °F 41% 30.04 in 10.0 mi NW 9.2 mph 18.4 mph N/A   Clear
12:15 PM 53.6 °F - 28.4 °F 38% 30.03 in 10.0 mi WNW 12.7 mph 18.4 mph N/A   Clear
12:35 PM 53.6 °F - 26.6 °F 35% 30.02 in 10.0 mi West 13.8 mph 18.4 mph N/A   Clear
12:55 PM 53.6 °F - 26.6 °F 35% 30.01 in 10.0 mi West 16.1 mph 21.9 mph N/A   Clear
1:15 PM 55.4 °F - 26.6 °F 33% 30.01 in 10.0 mi West 11.5 mph - N/A   Clear
1:35 PM 55.4 °F - 26.6 °F 33% 30.00 in 10.0 mi West 12.7 mph 19.6 mph N/A   Clear
1:55 PM 57.2 °F - 28.4 °F 33% 30.00 in 10.0 mi West 12.7 mph 16.1 mph N/A   Clear
2:15 PM 57.2 °F - 26.6 °F 31% 30.01 in 10.0 mi WNW 15.0 mph 18.4 mph N/A   Clear
2:35 PM 55.4 °F - 26.6 °F 33% 30.01 in 10.0 mi West 10.4 mph 26.5 mph N/A   Clear
2:55 PM 55.4 °F - 26.6 °F 33% 30.00 in 10.0 mi West 12.7 mph 20.7 mph N/A   Clear
3:15 PM 57.2 °F - 26.6 °F 31% 30.01 in 10.0 mi West 12.7 mph 21.9 mph N/A   Clear
3:35 PM 57.2 °F - 26.6 °F 31% 30.01 in 10.0 mi WNW 12.7 mph 18.4 mph N/A   Clear
3:55 PM 59.0 °F - 28.4 °F 31% 30.02 in 10.0 mi West 12.7 mph 17.3 mph N/A   Clear
4:15 PM 57.2 °F - 26.6 °F 31% 30.02 in 10.0 mi West 10.4 mph 20.7 mph N/A   Clear
4:35 PM 57.2 °F - 28.4 °F 33% 30.02 in 10.0 mi West 8.1 mph - N/A   Clear
4:55 PM 55.4 °F - 26.6 °F 33% 30.03 in 10.0 mi West 8.1 mph - N/A   Clear
5:15 PM 53.6 °F - 26.6 °F 35% 30.03 in 10.0 mi West 12.7 mph - N/A   Clear
5:55 PM 53.6 °F - 28.4 °F 38% 30.03 in 10.0 mi West 5.8 mph - N/A   Clear
6:15 PM 51.8 °F - 28.4 °F 41% 30.03 in 10.0 mi West 8.1 mph - N/A   Clear
6:35 PM 46.4 °F 43.5 °F 28.4 °F 50% 30.04 in 10.0 mi West 5.8 mph - N/A   Clear
6:55 PM 46.4 °F 43.5 °F 28.4 °F 50% 30.04 in 10.0 mi West 5.8 mph - N/A   Clear
7:15 PM 46.4 °F 43.5 °F 28.4 °F 50% 30.04 in 10.0 mi West 5.8 mph - N/A   Clear
7:35 PM 46.4 °F 43.5 °F 28.4 °F 50% 30.05 in 10.0 mi West 5.8 mph - N/A   Clear
7:55 PM 44.6 °F 43.1 °F 28.4 °F 53% 30.04 in 10.0 mi SW 3.5 mph - N/A   Clear
8:15 PM 44.6 °F 40.2 °F 28.4 °F 53% 30.05 in 10.0 mi West 8.1 mph - N/A   Clear
8:35 PM 46.4 °F 41.9 °F 26.6 °F 46% 30.05 in 10.0 mi West 9.2 mph - N/A   Clear
8:55 PM 46.4 °F 41.9 °F 26.6 °F 46% 30.05 in 10.0 mi West 9.2 mph - N/A   Clear
9:15 PM 46.4 °F 42.4 °F 26.6 °F 46% 30.04 in 10.0 mi WNW 8.1 mph - N/A   Clear
9:35 PM 46.4 °F 42.9 °F 28.4 °F 50% 30.04 in 10.0 mi WNW 6.9 mph - N/A   Clear
9:55 PM 46.4 °F 41.9 °F 28.4 °F 50% 30.05 in 10.0 mi West 9.2 mph - N/A   Clear
10:15 PM 46.4 °F 41.5 °F 28.4 °F 50% 30.05 in 10.0 mi West 10.4 mph - N/A   Clear
10:35 PM 44.6 °F 40.2 °F 28.4 °F 53% 30.05 in 10.0 mi West 8.1 mph - N/A   Clear
10:55 PM 44.6 °F 40.2 °F 28.4 °F 53% 30.05 in 10.0 mi West 8.1 mph - N/A   Clear
11:15 PM 44.6 °F 40.2 °F 28.4 °F 53% 30.04 in 10.0 mi West 8.1 mph - N/A   Clear
11:35 PM 42.8 °F 38.0 °F 28.4 °F 57% 30.04 in 10.0 mi West 8.1 mph - N/A   Clear
11:55 PM 42.8 °F 38.6 °F 28.4 °F 57% 30.04 in 10.0 mi West 6.9 mph - N/A   Clear